Weather History for Binghamton, NY

Change the Weather History Date:

Saturday, December 22, 2012

  Actual Average Record
Temperature  
Mean Temperature 27 °F 25 °F  
Max Temperature 30 °F 31 °F 62 °F (2013)
Min Temperature 24 °F 19 °F -4 °F (1989)
Degree Days  
Heating Degree Days 38 40  
Month to date heating degree days 634 801  
Since 1 July heating degree days 2167 2376  
Cooling Degree Days 0 0  
Month to date cooling degree days 0 0  
Year to date cooling degree days 548 381  
Moisture  
Dew Point 20 °F    
Average Humidity 75    
Maximum Humidity 92    
Minimum Humidity 58    
Precipitation  
Precipitation 0.04 in 0.09 in 0.65 in (1956)
Month to date precipitation 3.89 2.09  
Year to date precipitation 38.03 38.56  
Snow  
Snow 1.30 in 0.60 in 7.50 in (1969)
Month to date snowfall 3.3 12.0  
Since 1 July snowfall 7.9 18.8  
Snow Depth 2.00 in    
Sea Level Pressure  
Sea Level Pressure 29.50 in    
Wind  
Wind Speed 17 mph (WNW)    
Max Wind Speed 29 mph    
Max Gust Speed 45 mph    
Visibility 4 miles    
Events Fog , Snow    
T = Trace of Precipitation, MM = Missing Value Source: NWS Daily Summary

Daily Weather History Graph

Daily Weather History Graph

Search for Another Location

Airport:

Trip Planner

Search our weather history database for the weather conditions in past years. The results will help you decide how hot, cold, wet, or windy it might be!

Date:

Astronomy

Dec. 22, 2012 Rise Set
Actual Time 7:30 AM EST 4:35 PM EST
Civil Twilight 6:58 AM EST 5:07 PM EST
Nautical Twilight 6:22 AM EST 5:42 PM EST
Astronomical Twilight 5:48 AM EST 6:17 PM EST
Moon 12:55 PM EST (12/22) 2:09 AM EST (12/22)
Length of Visible Light 10h 09m
Length of Day
9h 05m
Waxing Gibbous, 73% of the Moon is Illuminated
Dec 22
Waxing Gibbous
Dec 28
Full
Jan 4
Last Quarter
Jan 11
New
Jan 18
First Quarter

Hourly Weather History & Observations

Time (EST) Temp. Windchill Dew Point Humidity Pressure Visibility Wind Dir Wind Speed Gust Speed Precip Events Conditions
12:02 AM 30.2 °F 20.8 °F 28.4 °F 93% 29.20 in 2.5 mi West 11.5 mph - 0.00 in Snow Light Snow
12:31 AM 30.2 °F 18.9 °F 28.4 °F 93% 29.20 in 3.0 mi West 16.1 mph 25.3 mph 0.01 in Snow Light Snow
12:53 AM 30.0 °F 17.9 °F 26.1 °F 85% 29.25 in 6.0 mi WNW 18.4 mph 26.5 mph 0.01 in Snow Light Snow
1:09 AM 28.4 °F 15.1 °F 24.8 °F 86% 29.22 in 5.0 mi West 20.7 mph 28.8 mph 0.00 in Snow Light Snow
1:16 AM 28.4 °F 15.4 °F 24.8 °F 86% 29.23 in 3.0 mi West 19.6 mph 28.8 mph 0.00 in Snow Light Snow
1:22 AM 28.4 °F 16.6 °F 24.8 °F 86% 29.23 in 2.0 mi WNW 16.1 mph 26.5 mph 0.00 in Snow Light Snow
1:29 AM 28.4 °F 16.2 °F 24.8 °F 86% 29.24 in 1.8 mi West 17.3 mph 31.1 mph 0.00 in Snow Light Snow
1:37 AM 28.4 °F 15.8 °F 24.8 °F 86% 29.24 in 2.0 mi WNW 18.4 mph 28.8 mph 0.00 in Snow Light Snow
1:43 AM 28.4 °F 15.8 °F 24.8 °F 86% 29.25 in 3.0 mi WNW 18.4 mph 29.9 mph 0.00 in Snow Light Snow
1:53 AM 28.9 °F 17.7 °F 24.1 °F 82% 29.30 in 6.0 mi West 15.0 mph 26.5 mph 0.00 in Snow Light Snow
2:04 AM 28.4 °F 16.6 °F 24.8 °F 86% 29.26 in 2.5 mi WNW 16.1 mph 20.7 mph 0.00 in Snow Light Snow
2:11 AM 28.4 °F 15.8 °F 24.8 °F 86% 29.27 in 2.5 mi WNW 18.4 mph 28.8 mph 0.00 in Snow Light Snow
2:13 AM 28.4 °F 16.6 °F 24.8 °F 86% 29.27 in 3.0 mi WNW 16.1 mph 28.8 mph 0.00 in Snow Light Snow
2:53 AM 27.0 °F 13.2 °F 21.0 °F 78% 29.35 in 7.0 mi NW 20.7 mph 29.9 mph 0.00 in Snow Light Snow
3:41 AM 26.6 °F 13.1 °F 21.2 °F 80% 29.32 in 2.0 mi WNW 19.6 mph 31.1 mph 0.00 in Snow Light Snow
3:53 AM 26.1 °F 12.0 °F 19.9 °F 78% 29.38 in 2.5 mi WNW 20.7 mph 32.2 mph 0.00 in Snow Light Snow
4:26 AM 26.6 °F 12.7 °F 19.4 °F 74% 29.33 in 3.0 mi WNW 20.7 mph 32.2 mph 0.00 in Snow Light Snow
4:35 AM 26.6 °F 13.8 °F 19.4 °F 74% 29.34 in 2.5 mi WNW 17.3 mph 31.1 mph 0.00 in Snow Light Snow
4:46 AM 26.6 °F 13.8 °F 19.4 °F 74% 29.35 in 3.0 mi WNW 17.3 mph 32.2 mph 0.00 in Snow Light Snow
4:53 AM 25.0 °F 9.9 °F 19.0 °F 78% 29.40 in 3.0 mi WNW 23.0 mph 33.4 mph 0.00 in Snow Light Snow
5:22 AM 24.8 °F 11.9 °F 19.4 °F 80% 29.37 in 2.5 mi WNW 16.1 mph 27.6 mph 0.00 in Snow Light Snow
5:35 AM 24.8 °F 11.1 °F 19.4 °F 80% 29.37 in 1.5 mi NW 18.4 mph 32.2 mph 0.00 in Snow Light Snow
5:53 AM 25.0 °F 11.3 °F 19.9 °F 81% 29.44 in 1.5 mi NW 18.4 mph 32.2 mph 0.00 in Snow Light Snow
6:31 AM 24.8 °F 12.9 °F 19.4 °F 80% 29.41 in 1.2 mi WNW 13.8 mph 26.5 mph 0.00 in Snow Light Snow
6:53 AM 24.1 °F 10.1 °F 19.9 °F 84% 29.47 in 1.5 mi WNW 18.4 mph 25.3 mph 0.00 in Snow Light Snow
7:20 AM 24.8 °F 11.5 °F 19.4 °F 80% 29.43 in 1.5 mi NW 17.3 mph 29.9 mph 0.00 in Snow Light Snow
7:47 AM 24.8 °F 11.1 °F 19.4 °F 80% 29.44 in 0.8 mi NW 18.4 mph 33.4 mph 0.00 in Snow Light Snow
7:53 AM 25.0 °F 10.9 °F 19.9 °F 81% 29.49 in 0.8 mi WNW 19.6 mph 34.5 mph 0.00 in Snow Light Snow
8:26 AM 24.8 °F 12.4 °F 21.2 °F 86% 29.47 in 0.5 mi WNW 15.0 mph 26.5 mph 0.00 in Fog , Snow Snow
8:33 AM 24.8 °F 12.4 °F 21.2 °F 86% 29.47 in 0.2 mi West 15.0 mph 23.0 mph 0.01 in Fog , Snow Heavy Snow
8:36 AM 24.8 °F 13.4 °F 21.2 °F 86% 29.47 in 0.5 mi WNW 12.7 mph 23.0 mph 0.02 in Fog , Snow Snow
8:44 AM 24.8 °F 11.9 °F 21.2 °F 86% 29.47 in 1.0 mi WNW 16.1 mph 24.2 mph 0.02 in Snow Light Snow
8:53 AM 24.1 °F 9.8 °F 19.9 °F 84% 29.53 in 1.0 mi WNW 19.6 mph 28.8 mph 0.02 in Snow Light Snow
9:16 AM 24.8 °F 13.4 °F 19.4 °F 80% 29.49 in 1.0 mi WNW 12.7 mph 29.9 mph 0.00 in Snow Light Snow
9:23 AM 24.8 °F 10.7 °F 19.4 °F 80% 29.49 in 1.0 mi WNW 19.6 mph 31.1 mph 0.00 in Snow Light Snow
9:28 AM 24.8 °F 10.7 °F 19.4 °F 80% 29.50 in 0.8 mi WNW 19.6 mph 32.2 mph 0.00 in Snow Light Snow
9:40 AM 24.8 °F 12.4 °F 19.4 °F 80% 29.50 in 0.8 mi WNW 15.0 mph 32.2 mph 0.00 in Snow Light Snow
9:53 AM 24.1 °F 13.1 °F 19.9 °F 84% 29.56 in 1.0 mi WNW 11.5 mph 27.6 mph 0.01 in Snow Light Snow
10:18 AM 24.8 °F 10.7 °F 19.4 °F 80% 29.52 in 0.8 mi WNW 19.6 mph 27.6 mph 0.00 in Snow Light Snow
10:49 AM 24.8 °F 11.5 °F 19.4 °F 80% 29.53 in 1.0 mi WNW 17.3 mph 27.6 mph 0.00 in Snow Light Snow
10:53 AM 25.0 °F 12.2 °F 19.9 °F 81% 29.58 in 1.0 mi WNW 16.1 mph 28.8 mph 0.00 in Snow Light Snow
11:53 AM 26.1 °F 13.6 °F 19.0 °F 75% 29.59 in 1.5 mi WNW 16.1 mph 31.1 mph 0.00 in Snow Light Snow
12:53 PM 26.1 °F 14.5 °F 18.0 °F 71% 29.61 in 1.5 mi WNW 13.8 mph 32.2 mph 0.00 in Snow Light Snow
1:53 PM 26.1 °F 13.1 °F 18.0 °F 71% 29.64 in 1.5 mi WNW 17.3 mph 31.1 mph 0.00 in Snow Light Snow
2:00 PM 26.6 °F 12.4 °F 17.6 °F 69% 29.59 in 4.0 mi WNW 21.9 mph 31.1 mph 0.00 in Snow Light Snow
2:53 PM 27.0 °F 13.5 °F 17.1 °F 66% 29.67 in 9.0 mi WNW 19.6 mph 31.1 mph 0.00 in   Overcast
3:25 PM 26.6 °F 13.4 °F 17.6 °F 69% 29.63 in 10.0 mi WNW 18.4 mph 28.8 mph 0.00 in   Overcast
3:49 PM 26.6 °F 14.3 °F 17.6 °F 69% 29.64 in 9.0 mi NW 16.1 mph 34.5 mph N/A   Overcast
3:53 PM 27.0 °F 13.5 °F 17.1 °F 66% 29.70 in 9.0 mi WNW 19.6 mph 34.5 mph 0.00 in   Overcast
4:53 PM 26.1 °F 14.0 °F 18.0 °F 71% 29.75 in 10.0 mi WNW 15.0 mph 23.0 mph 0.00 in   Overcast
5:53 PM 26.1 °F 14.0 °F 18.0 °F 71% 29.77 in 10.0 mi WNW 15.0 mph 23.0 mph N/A   Overcast
6:53 PM 28.0 °F 16.1 °F 16.0 °F 61% 29.79 in 10.0 mi WNW 16.1 mph 29.9 mph N/A   Overcast
7:53 PM 28.0 °F 14.6 °F 16.0 °F 61% 29.81 in 10.0 mi WNW 20.7 mph 32.2 mph N/A   Overcast
8:53 PM 28.0 °F 17.0 °F 17.1 °F 63% 29.84 in 10.0 mi WNW 13.8 mph 20.7 mph N/A   Overcast
9:08 PM 28.4 °F 18.0 °F 17.6 °F 64% 29.78 in 10.0 mi WNW 12.7 mph 20.7 mph N/A   Overcast
9:48 PM 28.4 °F 18.5 °F 17.6 °F 64% 29.79 in 10.0 mi WNW 11.5 mph 20.7 mph N/A   Overcast
9:53 PM 28.0 °F 17.5 °F 18.0 °F 66% 29.85 in 10.0 mi WNW 12.7 mph 20.7 mph N/A   Overcast
10:21 PM 28.4 °F 15.8 °F 17.6 °F 64% 29.80 in 10.0 mi West 18.4 mph 27.6 mph N/A   Overcast
10:53 PM 28.0 °F 14.6 °F 17.1 °F 63% 29.86 in 10.0 mi WNW 20.7 mph 26.5 mph N/A   Overcast
11:53 PM 28.0 °F 17.0 °F 19.0 °F 69% 29.87 in 8.0 mi WNW 13.8 mph 23.0 mph 0.00 in Snow Light Snow